Regional Weather Roundup
Issued by NWS

Home | Current Version | Previous Version | Graphics & Text | Print | Product List | Glossary On
Versions: 1 2 3 4 5 6 7 8 9 10 11 12 13 14 15 16 17 18 19 20 21 22 23 24 25 26 27 28 29 30 31 32 33 34 35 36 37 38 39 40 41 42 43 44 45 46 47 48 49 50
000
ASUS43 KDTX 252010
RWRMI
MICHIGAN HOURLY REGIONAL WEATHER ROUNDUP
NATIONAL WEATHER SERVICE DETROIT/PONTIAC MI
400 PM EDT MON MAY 25 2015

NOTE: "FAIR" INDICATES FEW OR NO CLOUDS BELOW 12,000 FEET WITH NO
SIGNIFICANT WEATHER AND/OR OBSTRUCTION TO VISIBILITY.

MIZ047>049-052>055-059>063-066>070-074>076-081>083-252100-
SOUTHEAST LOWER MICHIGAN

CITY           SKY/WX    TMP DP  RH WIND       PRES   REMARKS
ADRIAN         PTSUNNY   82  61  48 SW28G41   29.96F
ALMA           PTSUNNY   74  67  79 SW14G24   29.87F
ANN ARBOR      MOSUNNY   80  63  55 SW20G38   29.94F
BAD AXE        CLOUDY    73  63  70 W17G30    29.89R
CARO           PTSUNNY   80  65  60 SW14G24   29.86F
DETROIT CITY   PTSUNNY   81  63  54 S18G28    29.94F
DETROIT        LGT RAIN  79  64  60 SW28G35   29.96F
FLINT          PTSUNNY   81  64  56 S18G30    29.89F
GROSSE ILE     PTSUNNY   75  64  69 S22G28    29.95F
HILLSDALE      PTSUNNY   81  61  51 SW17G30   29.95F
HOWELL         PTSUNNY   79  61  54 SW18G29   29.91F

CITY           SKY/WX    TMP DP  RH WIND       PRES   REMARKS
JACKSON        PTSUNNY   78  60  53 SW22G30   29.92F
LAMBERTVILLE   PTSUNNY   81  61  50 SW13G24   29.99F
LANSING        LGT RAIN  72  66  81 SW16G24   29.91R
LAPEER         FAIR      78  64  62 SW14G25   29.90F
MASON          PTSUNNY   78  62  57 SW13G22   29.90F
MONROE         PTSUNNY   81  64  57 SW18G30   29.96S
MT. CLEMENS    PTSUNNY   81  63  55 S20G35    29.91F
PONTIAC        PTSUNNY   78  63  59 SW18G33   29.92F
PORT HOPE        N/A    N/A N/A N/A W3        29.86R
PORT HURON     PTSUNNY   75  64  69 SW7       29.94R
TRI CITIES     RAIN      70  65  84 SW18G41   29.87S
MIDLAND        LGT RAIN  71  67  87 SW14G24   29.85R
TROY           PTSUNNY   81  62  52 SW13      29.94F
SAGINAW HB     PTSUNNY   75  73  94 S18G24    29.85F
$$
MIZ043>046-050>051-056>058-064>065-071>073-077>080-252100-
SOUTHWEST LOWER MICHIGAN

CITY           SKY/WX    TMP DP  RH WIND       PRES   REMARKS
BATTLE CREEK   PTSUNNY   76  65  68 SW20G31   29.92R
BENTON HARBOR  PTSUNNY   74  64  71 SW18G26   29.91F
BIG RAPIDS     PTSUNNY   73  62  68 SW20G29   29.84S
COLDWATER      PTSUNNY   79  61  53 SW18G25   29.93S
FREMONT        FAIR      73  62  69 SW17G28   29.84F
HOLLAND        PTSUNNY   73  63  70 SW25G35   29.90S
GRAND RAPIDS   PTSUNNY   74  63  68 SW23G31   29.89S
IONIA          LGT RAIN  72  68  87 SW18G29   29.89R
KALAMAZOO      MOSUNNY   78  63  59 SW24G32   29.91F
LUDINGTON      PTSUNNY   71  64  78 S22G30    29.82R
MARSHALL       PTSUNNY   73  67  83 SW12G22   29.93R
MOUNT PLEASANT MOSUNNY   76  66  69 SW15G23   29.85S
MUSKEGON       PTSUNNY   69  59  70 SW20G28   29.87S
SOUTH HAVEN    PTSUNNY   75  61  61 W20G26    29.91F
$$
MIZ016>042-252100-
NORTHERN LOWER MICHIGAN

CITY           SKY/WX    TMP DP  RH WIND       PRES   REMARKS
ALPENA         PTSUNNY   73  68  84 S8        29.79F
BEAVER ISLAND  CLOUDY    68  62  80 SW16G31   29.73S
BELLAIRE       CLOUDY    73  64  72 S7G24     29.76F
CADILLAC       PTSUNNY   74  62  67 SW17G29   29.82S
CHARLEVOIX     PTSUNNY   72  65  78 SW13G21   29.78S
FRANKFORT      PTSUNNY   72  60  67 S17G26    29.78S
GAYLORD        PTSUNNY   77  64  64 SW15      29.78F
GRAYLING       PTSUNNY   73  61  64 SW15G28   29.81R
HARBOR SPRINGS CLOUDY    67  63  87 SW5       29.76S
HOUGHTON LAKE  CLOUDY    71  64  78 SW14G21   29.83R
MANISTEE       CLOUDY    72  63  73 SW8G18    29.80F
OSCODA         CLOUDY    77  67  72 SW16G23   29.82S
PELLSTON       CLOUDY    71  66  84 SW14      29.76F
ROGERS CITY    PTSUNNY   64  57  79 N5        29.77F
TRAVERSE CITY  PTSUNNY   77  63  61 SW15G23   29.76S
$$
MIZ007>008-015-252100-
EASTERN UPPER MICHIGAN

CITY           SKY/WX    TMP DP  RH WIND       PRES   REMARKS
KINROSS        CLOUDY    55  55 100 SE15      29.76F
MACKINAC ISLAN CLOUDY    45  45 100 E7        29.76F FOG
NEWBERRY       CLOUDY    61  61  99 S17G26    29.71F FOG
S. S. MARIE    LGT RAIN  56  55  97 SE13G18   29.76F FOG
MUNISING         N/A     62  59  90 S9        29.64F
$$
MIZ004>006-011>014-085-252100-
CENTRAL UPPER MICHIGAN

CITY           SKY/WX    TMP DP  RH WIND       PRES   REMARKS
MANISTIQUE     LGT RAIN  48  47  97 S8        29.70F VSB 1/4
ESCANABA       CLOUDY    61  57  88 SW8       29.69R
MENOMINEE      CLOUDY    72  61  68 SW7       29.71R
SAWYER-GWINN   CLOUDY    63  59  88 SW14      29.67S
$$
MIZ001>003-009>011-084-252100-
WESTERN UPPER MICHIGAN

CITY           SKY/WX    TMP DP  RH WIND       PRES   REMARKS
IRON MOUNTAIN  LGT RAIN  66  62  87 SW9       29.70R FOG
HOUGHTON       RAIN      48  47  96 E13       29.66F FOG
COPPER HARBOR    N/A     51  49  92 CALM      29.67F
IRONWOOD       CLOUDY    61  59  94 W10       29.65R
$$

ABBREVIATIONS USED IN REMARKS
   TC - TEMPERATURE IN CELSIUS
  WCI - WIND CHILL INDEX
   HX - HEAT INDEX
  VSB - VISIBILITY



USA.gov is the U.S. government's official web portal to all federal, state and local government web resources and services.